This is the latest recevied weather packets stored in our database for station/object KK4JIV-13. If no packets are shown the sender has not sent any weather packets the latest 1 day(s).
| Time | Temp. | Humidity | Pressure | Rain* | Wind** | Luminosity | Snow |
|---|---|---|---|---|---|---|---|
| 1778010635 | 31.67° C | 40% | 1013.9 hPa | 0 mm | 0.45 m/s, 150° | 242 W/m² | - |
| 1778010327 | 31.67° C | 39% | 1014.2 hPa | 0 mm | 0.89 m/s, 155° | 554 W/m² | - |
| 1778010022 | 31.67° C | 40% | 1014.2 hPa | 0 mm | 0.45 m/s, 87° | 570 W/m² | - |
| 1778009720 | 32.78° C | 39% | 1014.2 hPa | 0 mm | 0.89 m/s, 213° | 605 W/m² | - |
| 1778009417 | 31.67° C | 40% | 1014.1 hPa | 0 mm | 0.45 m/s, 200° | 702 W/m² | - |
| 1778009115 | 30.56° C | 42% | 1014.2 hPa | 0 mm | 0.45 m/s, 100° | 703 W/m² | - |
| 1778008812 | 30° C | 44% | 1014.4 hPa | 0 mm | 1.34 m/s, 103° | 308 W/m² | - |
| 1778008510 | 31.11° C | 43% | 1014.3 hPa | 0 mm | 1.34 m/s, 182° | 320 W/m² | - |
| 1778008208 | 31.67° C | 40% | 1014.3 hPa | 0 mm | 0.45 m/s, 98° | 715 W/m² | - |
| 1778007902 | 30.56° C | 41% | 1014.5 hPa | 0 mm | 0.89 m/s, 294° | 677 W/m² | - |
| 1778007592 | 31.67° C | 40% | 1014.4 hPa | 0 mm | 0 m/s | 282 W/m² | - |
| 1778007290 | 31.67° C | 39% | 1014.5 hPa | 0 mm | 0.89 m/s, 127° | 682 W/m² | - |
| 1778006986 | 31.67° C | 39% | 1014.4 hPa | 0 mm | 0.89 m/s, 356° | 748 W/m² | - |
| 1778006682 | 31.67° C | 41% | 1014.7 hPa | 0 mm | 1.34 m/s, 106° | 737 W/m² | - |
| 1778006379 | 31.11° C | 41% | 1014.7 hPa | 0 mm | 1.34 m/s, 90° | 781 W/m² | - |
| 1778006076 | 30° C | 42% | 1014.8 hPa | 0 mm | 0.45 m/s, 186° | 734 W/m² | - |
| 1778005773 | 31.11° C | 41% | 1014.9 hPa | 0 mm | 0.45 m/s, 132° | 265 W/m² | - |
| 1778005470 | 30.56° C | 43% | 1015 hPa | 0 mm | 0.89 m/s, 75° | 728 W/m² | - |
| 1778005166 | 30° C | 42% | 1015 hPa | 0 mm | 0.45 m/s, 68° | 817 W/m² | - |
| 1778004864 | 30.56° C | 40% | 1015 hPa | 0 mm | 0.45 m/s, 153° | 801 W/m² | - |
| 1778004561 | 30° C | 40% | 1015 hPa | 0 mm | 0.89 m/s, 345° | 833 W/m² | - |
| 1778004257 | 30.56° C | 43% | 1015.2 hPa | 0 mm | 2.68 m/s, 134° | 820 W/m² | - |
| 1778003954 | 31.11° C | 42% | 1015.1 hPa | 0 mm | 0.89 m/s, 274° | 827 W/m² | - |
| 1778003650 | 30° C | 45% | 1015.2 hPa | 0 mm | 0.45 m/s, 128° | 836 W/m² | - |
| 1778003346 | 30° C | 45% | 1015.2 hPa | 0 mm | 1.34 m/s, 183° | 687 W/m² | - |
* Rain latest hour (hover to see other rain measurements)
** Current wind speed in m/s (hover to see current wind gust speed)